�������l�o���
Date,Time,MP-1(��Sv/h),MP-2(��Sv/h),MP-3(��Sv/h),MP-4(��Sv/h),MP-5(��Sv/h),MP-6(��Sv/h),MP-7(��Sv/h),MP-8(��Sv/h),����,����(m/s),���J
2024/02/08,00:00,0.484,0.724,0.465,0.936,0.659,0.303,0.546,0.514,�k��,5.3,��
2024/02/08,00:10,0.482,0.725,0.465,0.936,0.657,0.304,0.546,0.513,�k��,4.8,��
2024/02/08,00:20,0.482,0.724,0.466,0.935,0.657,0.303,0.546,0.513,�k��,4.6,��
2024/02/08,00:30,0.483,0.723,0.465,0.936,0.658,0.302,0.546,0.514,���k��,4.5,��
2024/02/08,00:40,0.483,0.726,0.465,0.934,0.655,0.303,0.546,0.515,���k��,4.5,��
2024/02/08,00:50,0.483,0.725,0.465,0.935,0.656,0.303,0.545,0.513,�k��,4.0,��
2024/02/08,01:00,0.483,0.725,0.466,0.935,0.657,0.303,0.546,0.515,���k��,5.8,��
2024/02/08,01:10,0.484,0.724,0.467,0.936,0.659,0.303,0.546,0.515,���k��,3.8,��
2024/02/08,01:20,0.484,0.725,0.466,0.935,0.657,0.303,0.546,0.514,���k��,5.1,��
2024/02/08,01:30,0.484,0.725,0.465,0.936,0.659,0.303,0.547,0.514,���k��,3.5,��
2024/02/08,01:40,0.483,0.724,0.464,0.937,0.658,0.303,0.547,0.513,��,3.6,��
2024/02/08,01:50,0.483,0.723,0.467,0.936,0.657,0.303,0.546,0.515,��,4.6,��
2024/02/08,02:00,0.482,0.724,0.465,0.937,0.657,0.302,0.546,0.515,���k��,4.6,��
2024/02/08,02:10,0.483,0.725,0.465,0.934,0.659,0.304,0.547,0.513,��,4.1,��
2024/02/08,02:20,0.483,0.725,0.466,0.935,0.656,0.304,0.546,0.514,��,4.6,��
2024/02/08,02:30,0.483,0.725,0.465,0.938,0.658,0.303,0.546,0.513,���k��,4.0,��
2024/02/08,02:40,0.483,0.722,0.467,0.937,0.657,0.304,0.545,0.516,��,4.4,��
2024/02/08,02:50,0.481,0.722,0.466,0.936,0.657,0.303,0.547,0.514,���k��,3.8,��
2024/02/08,03:00,0.483,0.724,0.466,0.936,0.657,0.303,0.546,0.513,��,3.2,��
2024/02/08,03:10,0.482,0.724,0.465,0.935,0.658,0.302,0.545,0.516,���k��,2.3,��
2024/02/08,03:20,0.483,0.724,0.464,0.938,0.657,0.303,0.546,0.515,���k��,2.8,��
2024/02/08,03:30,0.483,0.724,0.465,0.938,0.657,0.303,0.545,0.515,���쐼,3.0,��
2024/02/08,03:40,0.483,0.725,0.467,0.937,0.657,0.303,0.546,0.513,���쐼,3.2,��
2024/02/08,03:50,0.484,0.726,0.465,0.938,0.659,0.304,0.546,0.514,���쐼,2.6,��
2024/02/08,04:00,0.483,0.724,0.467,0.937,0.657,0.303,0.546,0.515,���쐼,3.7,��
2024/02/08,04:10,0.485,0.725,0.464,0.938,0.658,0.303,0.547,0.515,���쐼,2.6,��
2024/02/08,04:20,0.483,0.724,0.465,0.937,0.657,0.303,0.544,0.515,��,2.6,��
2024/02/08,04:30,0.485,0.724,0.467,0.936,0.658,0.303,0.546,0.515,��,3.6,��
2024/02/08,04:40,0.482,0.725,0.466,0.938,0.658,0.302,0.546,0.514,��,3.4,��
2024/02/08,04:50,0.483,0.724,0.465,0.935,0.659,0.304,0.546,0.514,��,3.6,��
2024/02/08,05:00,0.485,0.724,0.464,0.935,0.657,0.302,0.545,0.516,��,4.5,��
2024/02/08,05:10,0.483,0.726,0.465,0.936,0.658,0.303,0.546,0.515,���쐼,4.4,��
2024/02/08,05:20,0.483,0.726,0.466,0.937,0.658,0.304,0.545,0.513,��,3.9,��
2024/02/08,05:30,0.483,0.724,0.466,0.935,0.659,0.303,0.546,0.514,��,3.3,��
2024/02/08,05:40,0.483,0.724,0.465,0.937,0.658,0.301,0.546,0.514,��,3.9,��
2024/02/08,05:50,0.485,0.725,0.463,0.937,0.657,0.303,0.547,0.515,���k��,4.7,��
2024/02/08,06:00,0.483,0.724,0.466,0.937,0.658,0.304,0.546,0.516,���k��,4.6,��
2024/02/08,06:10,0.483,0.724,0.466,0.936,0.658,0.303,0.547,0.514,���k��,3.4,��
2024/02/08,06:20,0.483,0.723,0.465,0.936,0.657,0.303,0.546,0.514,���k��,4.5,��
2024/02/08,06:30,0.485,0.724,0.465,0.936,0.656,0.303,0.546,0.515,���k��,4.2,��
2024/02/08,06:40,0.483,0.725,0.465,0.936,0.658,0.303,0.546,0.514,���k��,3.0,��
2024/02/08,06:50,0.484,0.725,0.465,0.937,0.657,0.303,0.547,0.515,���k��,2.0,��
2024/02/08,07:00,0.484,0.725,0.466,0.936,0.657,0.302,0.545,0.515,�k��,2.6,��
2024/02/08,07:10,0.484,0.725,0.466,0.936,0.657,0.302,0.546,0.514,�k��,3.0,��
2024/02/08,07:20,0.484,0.723,0.464,0.938,0.659,0.303,0.546,0.514,�k��,3.6,��
2024/02/08,07:30,0.482,0.724,0.465,0.937,0.656,0.302,0.545,0.514,�k��,2.8,��
2024/02/08,07:40,0.484,0.727,0.466,0.937,0.659,0.302,0.546,0.516,���k��,1.9,��
2024/02/08,07:50,0.485,0.723,0.466,0.936,0.658,0.302,0.547,0.514,�k��,3.7,��
2024/02/08,08:00,0.485,0.725,0.466,0.937,0.658,0.303,0.546,0.515,�k��,4.0,��
2024/02/08,08:10,0.484,0.727,0.466,0.937,0.656,0.303,0.548,0.514,�k��,3.5,��
2024/02/08,08:20,0.484,0.727,0.464,0.937,0.656,0.302,0.546,0.516,���k��,3.5,��
2024/02/08,08:30,0.485,0.725,0.465,0.937,0.658,0.300,0.547,0.515,�k��,3.2,��
2024/02/08,08:40,0.484,0.727,0.466,0.937,0.657,0.302,0.547,0.515,�k�k��,3.7,��
2024/02/08,08:50,0.485,0.727,0.466,0.937,0.659,0.303,0.547,0.515,�k�k��,2.9,��
2024/02/08,09:00,0.485,0.728,0.467,0.935,0.658,0.302,0.548,0.516,�k�k��,2.6,��
2024/02/08,09:10,0.486,0.728,0.465,0.938,0.659,0.303,0.548,0.516,�k�k��,2.6,��
2024/02/08,09:20,0.485,0.728,0.467,0.937,0.660,0.303,0.547,0.515,�k,1.5,��
2024/02/08,09:30,0.485,0.727,0.466,0.937,0.659,0.301,0.548,0.516,�k�k��,1.8,��
2024/02/08,09:40,0.485,0.727,0.467,0.937,0.658,0.303,0.547,0.514,�k,2.0,��
2024/02/08,09:50,0.486,0.727,0.467,0.937,0.663,0.304,0.546,0.516,�k,2.3,��
2024/02/08,10:00,0.487,0.727,0.468,0.936,0.659,0.304,0.546,0.514,�k��,1.7,��
2024/02/08,10:10,0.483,0.728,0.467,0.939,0.659,0.303,0.546,0.516,���k��,2.9,��
2024/02/08,10:20,0.486,0.728,0.467,0.938,0.661,0.302,0.547,0.515,���k��,7.2,��
2024/02/08,10:30,0.487,0.729,0.469,0.938,0.660,0.303,0.546,0.516,���k��,7.0,��
2024/02/08,10:40,0.487,0.729,0.468,0.938,0.661,0.304,0.546,0.516,���k��,5.9,��
2024/02/08,10:50,0.488,0.728,0.468,0.938,0.663,0.303,0.545,0.517,���k��,8.2,��
2024/02/08,11:00,0.486,0.731,0.469,0.940,0.662,0.304,0.545,0.514,��,6.1,��
2024/02/08,11:10,0.486,0.732,0.470,0.939,0.664,0.305,0.549,0.515,��,6.5,��
2024/02/08,11:20,0.489,0.730,0.469,0.941,0.664,0.304,0.547,0.518,���k��,7.1,��
2024/02/08,11:30,0.489,0.733,0.469,0.939,0.665,0.303,0.546,0.516,��,7.2,��
2024/02/08,11:40,0.489,0.732,0.469,0.940,0.665,0.305,0.548,0.516,���k��,6.4,��
2024/02/08,11:50,0.490,0.733,0.470,0.940,0.664,0.304,0.549,0.516,��,6.3,��
2024/02/08,12:00,0.489,0.736,0.471,0.939,0.668,0.305,0.547,0.514,���k��,6.3,��
2024/02/08,12:10,0.489,0.736,0.472,0.940,0.666,0.304,0.547,0.516,���k��,5.6,��
2024/02/08,12:20,0.491,0.736,0.471,0.941,0.665,0.304,0.547,0.516,���k��,6.7,��
2024/02/08,12:30,0.490,0.734,0.472,0.942,0.666,0.305,0.547,0.517,���k��,7.2,��
2024/02/08,12:40,0.491,0.735,0.473,0.943,0.666,0.305,0.548,0.518,���k��,7.3,��
2024/02/08,12:50,0.491,0.736,0.471,0.941,0.666,0.304,0.549,0.518,���k��,5.6,��
2024/02/08,13:00,0.492,0.739,0.473,0.943,0.668,0.305,0.549,0.516,���k��,6.3,��
2024/02/08,13:10,0.492,0.737,0.473,0.942,0.667,0.305,0.548,0.516,���k��,4.3,��
2024/02/08,13:20,0.492,0.737,0.473,0.942,0.671,0.306,0.549,0.515,���쐼,7.2,��
2024/02/08,13:30,0.492,0.741,0.474,0.944,0.671,0.305,0.548,0.516,��,6.1,��
2024/02/08,13:40,0.493,0.740,0.473,0.941,0.671,0.306,0.549,0.516,��,5.7,��
2024/02/08,13:50,0.495,0.741,0.474,0.943,0.671,0.306,0.549,0.515,��,7.6,��
2024/02/08,14:00,0.493,0.740,0.473,0.942,0.671,0.307,0.549,0.516,��,8.2,��
2024/02/08,14:10,0.492,0.742,0.473,0.945,0.669,0.306,0.549,0.516,��,8.3,��
2024/02/08,14:20,0.492,0.742,0.473,0.943,0.669,0.306,0.549,0.516,��,8.5,��
2024/02/08,14:30,0.493,0.743,0.474,0.944,0.669,0.307,0.550,0.516,���k��,8.9,��
2024/02/08,14:40,0.492,0.743,0.474,0.943,0.669,0.306,0.549,0.515,��,8.5,��
2024/02/08,14:50,0.494,0.742,0.476,0.945,0.671,0.307,0.550,0.516,���쐼,7.2,��
2024/02/08,15:00,0.494,0.744,0.475,0.944,0.672,0.308,0.550,0.515,��,7.5,��
2024/02/08,15:10,0.496,0.743,0.474,0.942,0.671,0.308,0.550,0.517,���k��,8.4,��
2024/02/08,15:20,0.496,0.744,0.476,0.944,0.672,0.307,0.550,0.518,���k��,8.2,��
2024/02/08,15:30,0.496,0.746,0.475,0.945,0.673,0.306,0.551,0.518,��,6.2,��
2024/02/08,15:40,0.495,0.746,0.476,0.944,0.671,0.306,0.552,0.519,��,7.4,��
2024/02/08,15:50,0.494,0.748,0.475,0.945,0.674,0.306,0.550,0.518,��,6.6,��
2024/02/08,16:00,0.495,0.748,0.476,0.948,0.673,0.306,0.552,0.519,��,6.2,��
2024/02/08,16:10,0.496,0.748,0.477,0.943,0.674,0.307,0.552,0.519,��,6.7,��
2024/02/08,16:20,0.496,0.748,0.476,0.945,0.674,0.307,0.553,0.519,��,6.8,��
2024/02/08,16:30,0.496,0.748,0.476,0.945,0.674,0.306,0.551,0.519,��,4.7,��
2024/02/08,16:40,0.496,0.749,0.476,0.945,0.674,0.307,0.552,0.519,��,4.8,��
2024/02/08,16:50,0.498,0.749,0.476,0.945,0.672,0.307,0.551,0.520,��,4.4,��
2024/02/08,17:00,0.498,0.748,0.477,0.944,0.673,0.306,0.552,0.519,��,3.7,��
2024/02/08,17:10,0.497,0.751,0.476,0.948,0.674,0.306,0.552,0.520,��,2.5,��
2024/02/08,17:20,0.497,0.749,0.476,0.944,0.675,0.307,0.550,0.520,��,3.0,��
2024/02/08,17:30,0.497,0.750,0.476,0.946,0.675,0.307,0.552,0.519,���k��,3.2,��
2024/02/08,17:40,0.497,0.749,0.476,0.944,0.675,0.306,0.551,0.519,��,2.9,��
2024/02/08,17:50,0.497,0.749,0.476,0.945,0.675,0.307,0.551,0.517,��,3.0,��
2024/02/08,18:00,0.498,0.748,0.476,0.944,0.675,0.307,0.552,0.518,���k��,2.9,��
2024/02/08,18:10,0.497,0.749,0.476,0.943,0.676,0.305,0.551,0.521,��,2.6,��
2024/02/08,18:20,0.498,0.750,0.476,0.944,0.674,0.306,0.553,0.518,��,1.9,��
2024/02/08,18:30,0.496,0.749,0.475,0.948,0.676,0.308,0.550,0.519,���k��,2.0,��
2024/02/08,18:40,0.498,0.751,0.477,0.944,0.676,0.307,0.550,0.517,��,2.6,��
2024/02/08,18:50,0.497,0.749,0.475,0.944,0.675,0.307,0.550,0.517,���쐼,2.8,��
2024/02/08,19:00,0.499,0.750,0.476,0.946,0.675,0.307,0.551,0.518,��,3.3,��
2024/02/08,19:10,0.495,0.749,0.475,0.944,0.675,0.306,0.551,0.517,��,3.3,��
2024/02/08,19:20,0.497,0.750,0.475,0.945,0.674,0.305,0.551,0.518,��,3.2,��
2024/02/08,19:30,0.496,0.749,0.476,0.945,0.675,0.306,0.549,0.517,���k��,2.0,��
2024/02/08,19:40,0.497,0.748,0.475,0.945,0.676,0.305,0.550,0.517,���k��,2.8,��
2024/02/08,19:50,0.498,0.749,0.476,0.946,0.675,0.307,0.551,0.516,���k��,3.0,��
2024/02/08,20:00,0.499,0.751,0.474,0.945,0.675,0.306,0.551,0.518,��,2.3,��
2024/02/08,20:10,0.497,0.749,0.475,0.946,0.675,0.305,0.550,0.517,���k��,2.2,��
2024/02/08,20:20,0.496,0.752,0.475,0.945,0.676,0.306,0.549,0.517,���k��,2.6,��
2024/02/08,20:30,0.498,0.750,0.475,0.946,0.676,0.306,0.550,0.517,���k��,3.7,��
2024/02/08,20:40,0.496,0.750,0.473,0.946,0.677,0.305,0.550,0.516,���k��,2.0,��
2024/02/08,20:50,0.495,0.750,0.475,0.944,0.675,0.306,0.551,0.515,���k��,2.2,��
2024/02/08,21:00,0.496,0.749,0.473,0.945,0.678,0.307,0.550,0.516,��,3.2,��
2024/02/08,21:10,0.496,0.750,0.475,0.946,0.677,0.305,0.551,0.517,�k��,3.6,��
2024/02/08,21:20,0.495,0.750,0.475,0.945,0.675,0.307,0.549,0.516,�k�k��,3.8,��
2024/02/08,21:30,0.498,0.751,0.477,0.944,0.676,0.306,0.550,0.517,�k��,4.7,��
2024/02/08,21:40,0.494,0.751,0.475,0.945,0.674,0.306,0.548,0.516,�k��,7.1,��
2024/02/08,21:50,0.496,0.749,0.475,0.945,0.677,0.306,0.550,0.518,�k��,6.2,��
2024/02/08,22:00,0.497,0.749,0.475,0.945,0.674,0.307,0.550,0.517,�k��,3.9,��
2024/02/08,22:10,0.496,0.750,0.474,0.946,0.675,0.307,0.550,0.515,�k��,3.3,��
2024/02/08,22:20,0.497,0.750,0.475,0.944,0.677,0.307,0.550,0.517,�k��,4.8,��
2024/02/08,22:30,0.497,0.749,0.475,0.945,0.674,0.307,0.550,0.517,�k��,4.5,��
2024/02/08,22:40,0.495,0.748,0.475,0.944,0.676,0.306,0.549,0.517,�k��,6.1,��
2024/02/08,22:50,0.497,0.749,0.475,0.945,0.674,0.307,0.549,0.516,�k��,5.8,��
2024/02/08,23:00,0.496,0.750,0.474,0.944,0.677,0.306,0.550,0.516,�k��,6.0,��
2024/02/08,23:10,0.497,0.749,0.475,0.945,0.676,0.306,0.549,0.517,�k��,4.7,��
2024/02/08,23:20,0.497,0.749,0.475,0.947,0.676,0.308,0.549,0.515,�k��,4.7,��
2024/02/08,23:30,0.497,0.748,0.475,0.947,0.675,0.306,0.548,0.517,�k��,6.0,��
2024/02/08,23:40,0.497,0.750,0.475,0.944,0.675,0.306,0.549,0.515,�k��,5.5,��
2024/02/08,23:50,0.497,0.751,0.474,0.945,0.677,0.305,0.550,0.517,�k��,4.6,��
